Location: L�Adrech
(44.2500°N, 6.4167°E)
Time: 23:25:40
(UTC+00:00)

Cosmos 1844 - Pass Details

Date: 07 June 2020
Orbit: 821 x 869 km, 70.9° (Epoch: 05 July)

Event Time Altitude Azimuth Distance (km) Brightness Sun altitude
Rises 03:01:26 0° 332° (NNW) 3,464 7.1 -7.8°
Reaches altitude 10° 03:03:55 10° 329° (NNW) 2,523 6.3 -7.5°
Maximum altitude 03:09:40 66° 249° (WSW) 944 3.8 -6.7°
Drops below altitude 10° 03:15:22 10° 168° (SSE) 2,497 5.9 -5.9°
Sets 03:17:49 0° 166° (SSE) 3,425 6.6 -5.6°
